TimeCST,TemperatureF,Dew PointF,Humidity,Sea Level PressureIn,VisibilityMPH,Wind Direction,Wind SpeedMPH,Gust SpeedMPH,PrecipitationIn,Events,Conditions,WindDirDegrees,DateUTC
12:58 AM,73.4,69.4,87,29.97,10.0,South,11.5,-,N/A,,Mostly Cloudy,180,2013-12-22 06:58:00
1:58 AM,73.0,69.4,88,29.97,10.0,South,6.9,-,N/A,,Mostly Cloudy,180,2013-12-22 07:58:00
2:38 AM,73.4,69.8,88,29.94,10.0,SSE,13.8,-,N/A,,Scattered Clouds,160,2013-12-22 08:38:00
2:43 AM,73.4,69.8,88,29.95,10.0,SSE,12.7,-,N/A,,Mostly Cloudy,160,2013-12-22 08:43:00
2:58 AM,72.7,69.3,89,29.94,10.0,South,12.7,20.7,N/A,,Mostly Cloudy,170,2013-12-22 08:58:00
3:03 AM,73.4,69.8,88,29.94,10.0,South,13.8,-,N/A,,Scattered Clouds,170,2013-12-22 09:03:00
3:08 AM,73.4,69.8,88,29.94,10.0,South,12.7,-,N/A,,Scattered Clouds,170,2013-12-22 09:08:00
3:18 AM,73.4,69.8,88,29.94,10.0,South,10.4,18.4,N/A,,Mostly Cloudy,170,2013-12-22 09:18:00
3:53 AM,71.6,69.8,94,29.93,10.0,South,10.4,-,N/A,,Scattered Clouds,170,2013-12-22 09:53:00
3:58 AM,72.1,69.1,90,29.93,10.0,South,11.5,-,N/A,,Mostly Cloudy,180,2013-12-22 09:58:00
4:18 AM,73.4,69.8,88,29.94,10.0,South,10.4,-,N/A,,Overcast,180,2013-12-22 10:18:00
4:23 AM,73.4,69.8,88,29.94,10.0,South,10.4,18.4,N/A,,Overcast,190,2013-12-22 10:23:00
4:28 AM,73.4,69.8,88,29.94,10.0,South,11.5,-,N/A,,Overcast,190,2013-12-22 10:28:00
4:38 AM,73.4,69.8,88,29.95,10.0,South,11.5,-,N/A,,Overcast,190,2013-12-22 10:38:00
4:58 AM,72.9,69.4,89,29.94,10.0,South,10.4,-,N/A,,Mostly Cloudy,180,2013-12-22 10:58:00
5:58 AM,72.7,69.3,89,29.95,10.0,South,9.2,-,N/A,,Mostly Cloudy,170,2013-12-22 11:58:00
6:58 AM,72.9,69.6,90,29.97,10.0,South,10.4,-,N/A,,Mostly Cloudy,170,2013-12-22 12:58:00
7:18 AM,73.4,69.8,88,29.98,10.0,South,10.4,-,N/A,,Mostly Cloudy,170,2013-12-22 13:18:00
7:23 AM,73.4,69.8,88,29.97,10.0,South,11.5,-,N/A,,Overcast,180,2013-12-22 13:23:00
7:58 AM,74.1,70.3,88,29.99,10.0,South,10.4,20.7,N/A,,Overcast,180,2013-12-22 13:58:00
8:42 AM,75.2,69.8,83,30.01,9.0,South,13.8,25.3,N/A,Rain,Light Rain,190,2013-12-22 14:42:00
8:53 AM,73.4,71.6,94,30.01,10.0,South,12.7,20.7,N/A,,Overcast,180,2013-12-22 14:53:00
8:58 AM,73.8,70.7,90,30.01,10.0,South,13.8,20.7,0.00,,Overcast,180,2013-12-22 14:58:00
9:28 AM,75.2,71.6,89,30.01,10.0,South,17.3,26.5,N/A,,Mostly Cloudy,190,2013-12-22 15:28:00
9:58 AM,76.5,70.5,82,30.01,10.0,South,16.1,27.6,0.01,,Overcast,180,2013-12-22 15:58:00
10:58 AM,77.7,71.2,80,30.00,10.0,South,18.4,28.8,N/A,,Mostly Cloudy,190,2013-12-22 16:58:00
11:28 AM,78.8,71.6,78,29.99,10.0,South,13.8,-,N/A,Rain,Light Rain,190,2013-12-22 17:28:00
11:37 AM,77.0,71.6,83,29.99,10.0,South,17.3,27.6,N/A,,Mostly Cloudy,190,2013-12-22 17:37:00
11:58 AM,77.0,71.6,83,29.98,10.0,South,15.0,21.9,0.00,,Mostly Cloudy,190,2013-12-22 17:58:00
12:28 PM,78.8,71.6,78,29.97,10.0,SSW,19.6,25.3,N/A,,Mostly Cloudy,200,2013-12-22 18:28:00
12:33 PM,78.8,69.8,74,29.97,10.0,SSW,17.3,25.3,N/A,,Mostly Cloudy,200,2013-12-22 18:33:00
12:43 PM,78.8,69.8,74,29.96,10.0,South,16.1,26.5,N/A,,Mostly Cloudy,180,2013-12-22 18:43:00
12:48 PM,78.8,69.8,74,29.96,10.0,South,18.4,26.5,N/A,,Mostly Cloudy,180,2013-12-22 18:48:00
12:53 PM,78.8,69.8,74,29.96,10.0,SSW,20.7,27.6,N/A,,Mostly Cloudy,200,2013-12-22 18:53:00
12:58 PM,79.0,70.3,75,29.96,10.0,SSW,18.4,27.6,N/A,,Mostly Cloudy,200,2013-12-22 18:58:00
1:08 PM,80.6,69.8,70,29.95,10.0,South,18.4,25.3,N/A,,Mostly Cloudy,190,2013-12-22 19:08:00
1:18 PM,78.8,69.8,74,29.95,10.0,South,16.1,28.8,N/A,,Mostly Cloudy,180,2013-12-22 19:18:00
1:39 PM,78.8,71.6,78,29.95,10.0,South,18.4,25.3,N/A,Rain,Light Rain,190,2013-12-22 19:39:00
1:48 PM,77.0,71.6,83,29.95,10.0,SSW,16.1,21.9,N/A,,Clear,200,2013-12-22 19:48:00
1:54 PM,77.0,71.6,83,29.96,9.0,SSW,16.1,21.9,N/A,Rain,Light Rain,200,2013-12-22 19:54:00
1:58 PM,77.2,71.4,82,29.96,5.0,SSW,15.0,21.9,0.00,Rain,Light Rain,210,2013-12-22 19:58:00
2:03 PM,75.2,71.6,89,29.95,1.2,SW,13.8,-,N/A,Rain,Heavy Rain,230,2013-12-22 20:03:00
2:04 PM,75.2,71.6,89,29.95,1.2,WSW,13.8,-,N/A,Rain,Heavy Rain,240,2013-12-22 20:04:00
2:09 PM,73.4,71.6,94,29.96,0.8,SW,13.8,-,N/A,Rain,Heavy Rain,220,2013-12-22 20:09:00
2:14 PM,73.4,71.6,94,29.96,0.5,SW,12.7,-,N/A,Fog-Rain,Heavy Rain,230,2013-12-22 20:14:00
2:19 PM,73.4,71.6,94,29.95,0.8,SW,13.8,-,N/A,Rain,Light Rain,220,2013-12-22 20:19:00
2:24 PM,73.4,71.6,94,29.95,3.0,SSW,11.5,-,N/A,Rain,Light Rain,210,2013-12-22 20:24:00
2:26 PM,73.4,71.6,94,29.95,10.0,SSW,11.5,-,N/A,,Mostly Cloudy,200,2013-12-22 20:26:00
2:38 PM,73.4,73.4,100,29.96,10.0,South,10.4,-,N/A,Rain,Light Rain,190,2013-12-22 20:38:00
2:48 PM,75.2,73.4,94,29.96,10.0,South,12.7,-,N/A,Rain,Light Rain,190,2013-12-22 20:48:00
2:50 PM,75.2,73.4,94,29.95,10.0,South,13.8,20.7,N/A,,Scattered Clouds,190,2013-12-22 20:50:00
2:58 PM,74.7,72.7,94,29.96,10.0,South,13.8,23.0,0.41,,Scattered Clouds,190,2013-12-22 20:58:00
3:23 PM,75.2,71.6,89,29.95,10.0,South,12.7,-,N/A,,Mostly Cloudy,180,2013-12-22 21:23:00
3:28 PM,75.2,71.6,89,29.96,10.0,South,11.5,-,N/A,,Scattered Clouds,180,2013-12-22 21:28:00
3:58 PM,74.7,72.3,92,29.96,10.0,South,10.4,-,N/A,,Mostly Cloudy,170,2013-12-22 21:58:00
4:03 PM,75.2,71.6,89,29.96,10.0,South,12.7,-,N/A,,Mostly Cloudy,170,2013-12-22 22:03:00
4:48 PM,75.2,71.6,89,29.96,10.0,South,12.7,20.7,N/A,,Mostly Cloudy,170,2013-12-22 22:48:00
4:58 PM,73.4,71.6,94,29.96,10.0,South,13.8,-,N/A,,Mostly Cloudy,170,2013-12-22 22:58:00
5:03 PM,73.4,71.6,94,29.96,10.0,South,13.8,-,N/A,,Mostly Cloudy,170,2013-12-22 23:03:00
5:28 PM,73.4,71.6,94,29.97,10.0,South,11.5,-,N/A,,Overcast,170,2013-12-22 23:28:00
5:44 PM,73.4,71.6,94,29.97,10.0,South,12.7,18.4,N/A,Rain,Light Rain,170,2013-12-22 23:44:00
5:54 PM,73.4,71.6,94,29.97,10.0,South,11.5,-,N/A,,Overcast,170,2013-12-22 23:54:00
5:58 PM,73.8,71.2,92,29.97,10.0,South,12.7,-,0.00,,Mostly Cloudy,170,2013-12-22 23:58:00
6:47 PM,73.4,71.6,94,29.98,10.0,South,17.3,-,N/A,Rain,Light Rain,180,2013-12-23 00:47:00
6:52 PM,73.4,71.6,94,29.99,10.0,South,12.7,-,N/A,Rain,Light Rain,180,2013-12-23 00:52:00
6:57 PM,73.4,71.6,94,29.99,10.0,South,12.7,19.6,N/A,Rain,Light Rain,180,2013-12-23 00:57:00
6:58 PM,73.4,71.6,94,29.99,10.0,South,12.7,19.6,0.00,Rain,Light Rain,180,2013-12-23 00:58:00
7:03 PM,73.4,71.6,94,29.99,8.0,South,12.7,19.6,N/A,Rain,Rain,180,2013-12-23 01:03:00
7:19 PM,73.4,71.6,94,29.99,10.0,South,11.5,19.6,N/A,,Mostly Cloudy,190,2013-12-23 01:19:00
7:24 PM,73.4,71.6,94,29.99,10.0,South,12.7,-,N/A,,Overcast,180,2013-12-23 01:24:00
7:30 PM,73.4,71.6,94,30.01,10.0,SW,16.1,27.6,N/A,,Overcast,230,2013-12-23 01:30:00
7:31 PM,73.4,71.6,94,30.01,10.0,West,18.4,33.4,N/A,,Overcast,280,2013-12-23 01:31:00
7:32 PM,73.4,71.6,94,30.01,9.0,WNW,17.3,33.4,N/A,Rain,Light Rain,300,2013-12-23 01:32:00
7:52 PM,62.6,60.8,94,30.03,4.0,NW,13.8,24.2,N/A,Rain,Heavy Rain,320,2013-12-23 01:52:00
7:58 PM,62.2,60.6,94,30.04,6.0,WNW,11.5,21.9,0.16,Rain,Rain,300,2013-12-23 01:58:00
8:23 PM,60.8,60.8,100,30.05,2.5,NNW,12.7,20.7,N/A,Rain,Heavy Rain,330,2013-12-23 02:23:00
8:28 PM,60.8,59.0,94,30.05,5.0,NNW,12.7,-,N/A,Rain,Light Rain,330,2013-12-23 02:28:00
8:53 PM,60.8,59.0,94,30.05,10.0,North,6.9,-,N/A,Rain,Light Rain,350,2013-12-23 02:53:00
8:58 PM,60.8,59.7,96,30.05,10.0,NNW,8.1,-,0.21,Rain,Light Rain,340,2013-12-23 02:58:00
9:17 PM,60.8,59.0,94,30.05,10.0,North,8.1,-,N/A,,Scattered Clouds,350,2013-12-23 03:17:00
9:58 PM,60.4,59.4,96,30.07,10.0,North,4.6,-,0.01,,Overcast,360,2013-12-23 03:58:00
9:59 PM,60.8,59.0,94,30.06,9.0,NNW,6.9,-,N/A,Rain,Rain,340,2013-12-23 03:59:00
10:24 PM,59.0,59.0,100,30.07,8.0,North,4.6,-,N/A,Rain,Light Rain,350,2013-12-23 04:24:00
10:34 PM,60.8,59.0,94,30.07,10.0,NNW,5.8,-,N/A,Rain,Light Rain,330,2013-12-23 04:34:00
10:58 PM,59.5,58.8,97,30.08,6.0,NW,8.1,-,0.09,Rain,Heavy Rain,320,2013-12-23 04:58:00
11:08 PM,59.0,59.0,100,30.07,2.0,North,5.8,-,N/A,Rain,Heavy Rain,360,2013-12-23 05:08:00
11:18 PM,59.0,59.0,100,30.07,8.0,NW,10.4,-,N/A,Rain,Light Rain,320,2013-12-23 05:18:00
11:33 PM,59.0,57.2,94,30.07,10.0,NNW,5.8,-,N/A,Rain,Rain,330,2013-12-23 05:33:00
11:38 PM,59.0,57.2,94,30.08,8.0,NNW,9.2,-,N/A,Rain,Heavy Rain,330,2013-12-23 05:38:00
11:43 PM,59.0,57.2,94,30.07,7.0,NNW,12.7,-,N/A,Rain,Heavy Rain,340,2013-12-23 05:43:00
11:53 PM,57.2,57.2,100,30.07,10.0,NW,15.0,-,N/A,Rain,Rain,320,2013-12-23 05:53:00
11:58 PM,57.7,56.8,97,30.07,8.0,NNW,16.1,-,0.28,Rain,Heavy Rain,330,2013-12-23 05:58:00